DW3212 Weather Reports


Display with metric or nautical units.
time (UTC)temp
F
wind
direction
speed
MPH
gust
MPH
rain 1hr
in
rain 24hr
in
rain mn
in
humidity
%
barometer
mb
20260510054605 44 0.0 0.0 0.00 0.70 0.00 98 1009.6
20260510053055 45 0.0 0.0 0.00 0.70 0.00 98 1009.6
20260510051604 45 0.0 0.0 0.00 0.70 0.00 98 1009.7
20260510050055 45 0.0 0.0 0.00 0.70 0.00 98 1009.6
20260510044606 45 0.0 0.0 0.00 0.70 0.00 98 1009.8
20260510043059 45 0.0 0.0 0.00 0.70 0.00 98 1009.8
20260510041559 44 0.0 0.0 0.00 0.70 0.00 98 1009.9
20260510040058 44 0.0 0.0 0.00 0.70 0.00 98 1009.8
20260510034553 44 0.0 0.0 0.00 0.70 0.70 98 1010.1
20260510033121 44 0.0 0.0 0.00 0.70 0.70 98 1010.0
20260510031619 44 0.0 0.0 0.00 0.70 0.70 97 1010.1
20260510024556 44 0.0 0.0 0.00 0.70 0.70 97 1009.9
20260510023056 44 0.0 0.0 0.00 0.70 0.70 97 1010.1
20260510021556 44 0.0 0.0 0.00 0.70 0.70 97 1010.1
20260510020054 44 0.0 0.0 0.00 0.70 0.70 97 1010.3
20260510014607 44 0.0 0.0 0.00 0.70 0.70 97 1010.4
20260510013054 44 0.0 0.0 0.00 0.70 0.70 97 1010.2
20260510011559 44 0.0 0.0 0.00 0.70 0.70 97 1010.3
20260510004600 44 0.0 0.0 0.00 0.70 0.70 97 1010.0
20260510003103 44 0.0 0.0 0.00 0.70 0.70 97 1009.9
20260510001554 44 0.0 0.0 0.00 0.70 0.70 97 1009.6
20260510000056 44 0.0 0.0 0.00 0.70 0.70 97 1009.4
20260509234607 44 0.0 0.0 0.00 0.70 0.70 97 1009.4
20260509233055 44 0.0 0.0 0.00 0.70 0.70 97 1009.3
20260509231557 44 0.0 0.0 0.00 0.70 0.70 97 1009.4
20260509230055 44 0.0 0.0 0.00 0.70 0.70 97 1009.3
20260509224556 44 0.0 0.0 0.00 0.70 0.70 97 1009.3
20260509223100 43 0.0 0.0 0.00 0.70 0.70 97 1009.3
20260509221558 43 0.0 0.0 0.00 0.70 0.70 97 1009.3
20260509214557 43 0.0 0.0 0.01 0.70 0.70 96 1009.4
20260509213058 43 0.0 0.0 0.01 0.70 0.70 96 1009.6
20260509211557 42 0.0 0.0 0.02 0.70 0.70 96 1009.6
20260509210059 42 0.0 0.0 0.03 0.70 0.70 96 1009.7
20260509204559 42 0.0 0.0 0.03 0.69 0.69 96 1009.9
20260509203054 42 0.0 0.0 0.05 0.69 0.69 96 1010.0
20260509201553 42 0.0 0.0 0.05 0.68 0.68 96 1010.1
20260509200056 42 0.0 0.0 0.05 0.67 0.67 96 1010.1
20260509194557 41 0.0 0.0 0.07 0.66 0.66 96 1010.1
20260509193059 41 0.0 0.0 0.09 0.64 0.64 96 1010.1
20260509191600 41 0.0 0.0 0.10 0.63 0.63 95 1010.3
20260509190100 41 0.0 0.0 0.12 0.62 0.62 96 1010.4
20260509184554 40 0.0 0.0 0.11 0.58 0.58 96 1010.6
20260509183056 40 0.0 0.0 0.09 0.55 0.55 95 1010.8
20260509181602 40 0.0 0.0 0.09 0.52 0.52 95 1010.8
20260509180059 40 0.0 0.0 0.09 0.50 0.50 95 1010.9
20260509174604 40 0.0 0.0 0.09 0.48 0.48 95 1010.9
20260509173112 40 0.0 0.0 0.11 0.46 0.46 95 1011.1
20260509171601 40 0.0 0.0 0.11 0.44 0.44 95 1011.2
20260509170055 40 0.0 0.0 0.10 0.41 0.41 95 1011.2
20260509164554 40 0.0 0.0 0.11 0.39 0.39 94 1011.2
20260509163105 40 0.0 0.0 0.10 0.35 0.35 94 1011.4
20260509161554 40 0.0 0.0 0.11 0.33 0.33 94 1011.6
20260509160059 39 0.0 0.0 0.13 0.31 0.31 94 1011.9
20260509154604 39 0.0 0.0 0.13 0.28 0.28 94 1012.1
20260509153057 39 0.0 0.0 0.12 0.25 0.25 94 1012.3
20260509151556 39 0.0 0.0 0.10 0.22 0.22 94 1012.3
20260509150055 39 0.0 0.0 0.07 0.18 0.18 93 1012.3
20260509144609 39 0.0 0.0 0.06 0.15 0.15 94 1012.4
20260509143056 39 0.0 0.0 0.06 0.13 0.13 93 1012.3
20260509141555 39 0.0 0.0 0.07 0.12 0.12 94 1012.1
20260509140107 39 0.0 0.0 0.08 0.11 0.11 93 1012.1
20260509134555 39 0.0 0.0 0.07 0.09 0.09 94 1012.0
20260509133102 39 0.0 0.0 0.06 0.07 0.07 93 1012.0
20260509131602 39 0.0 0.0 0.05 0.05 0.05 92 1012.2
20260509130105 39 0.0 0.0 0.03 0.03 0.03 91 1012.1
20260509124603 39 0.0 0.0 0.02 0.02 0.02 89 1012.1
20260509123054 39 0.0 0.0 0.01 0.01 0.01 87 1012.1
20260509121604 39 0.0 0.0 0.00 0.00 0.00 85 1012.2
20260509120056 38 0.0 0.0 0.00 0.00 0.00 83 1012.3
20260509114555 37 0.0 0.0 0.00 0.00 0.00 84 1012.5
20260509113101 35 0.0 0.0 0.00 0.00 0.00 83 1012.5
20260509111607 36 0.0 0.0 0.00 0.00 0.00 80 1012.5
20260509110056 35 0.0 0.0 0.00 0.00 0.00 81 1012.5
20260509104556 34 0.0 0.0 0.00 0.00 0.00 81 1012.5
20260509103100 34 0.0 0.0 0.00 0.00 0.00 80 1012.4
20260509101554 33 0.0 0.0 0.00 0.00 0.00 79 1012.4
20260509100054 32 0.0 0.0 0.00 0.00 0.00 81 1012.2
20260509094556 32 0.0 0.0 0.00 0.00 0.00 81 1012.2
20260509093055 33 0.0 0.0 0.00 0.00 0.00 82 1012.4
20260509091559 33 0.0 0.0 0.00 0.00 0.00 79 1012.3
20260509090108 34 0.0 0.0 0.00 0.00 0.00 73 1012.3
20260509084602 34 0.0 0.0 0.00 0.00 0.00 71 1012.2
20260509083100 33 0.0 0.0 0.00 0.00 0.00 68 1011.9
20260509081600 33 0.0 0.0 0.00 0.00 0.00 70 1011.9
20260509080100 33 0.0 0.0 0.00 0.00 0.00 71 1011.8
20260509074556 33 0.0 0.0 0.00 0.00 0.00 76 1011.8
20260509073056 34 0.0 0.0 0.00 0.00 0.00 76 1011.7
20260509071600 33 0.0 0.0 0.00 0.00 0.00 76 1011.6
20260509070057 34 0.0 0.0 0.00 0.00 0.00 77 1011.9
20260509064602 33 0.0 0.0 0.00 0.00 0.00 79 1011.9
20260509063111 33 0.0 0.0 0.00 0.00 0.00 82 1011.8
20260509061604 33 0.0 0.0 0.00 0.00 0.00 83 1012.0
20260509060100 33 0.0 0.0 0.00 0.00 0.00 83 1012.2